User: anonymous   Login
Location: Newark
(34.6283°N, 36.0776°E)
Time: 21:56:43
(UTC+00:00)
Language:

Transit 4A - Orbit

View from above orbital plane
View from above orbital plane
View from above satellite
View from above satellite

Ground track
Ground track

The orbit data is extracted from the following two-line orbital elements,

1   116U 61015A   19260.89707918 -.00000028 +00000-0 +37524-4 0  9994
2   116 066.8099 156.9395 0078743 205.2162 154.5066 13.91758883953752
Epoch (UTC): 17 September 2019 21:31:47
Eccentricity: 0.0078743
inclination: 66.8099°
perigee height: 865 km
apogee height: 980 km
right ascension of ascending node: 156.9395°
argument of perigee: 205.2162°
revolutions per day: 13.91758883
mean anomaly at epoch: 154.5066°
orbit number at epoch: 95375

The dashed part of the orbit path shows where the satellite is in the earth's shadow,  

DLR